Regional Weather Roundup
Issued by NWS

Home | Current Version | Previous Version | Text Only | Print | Product List | Glossary On
Versions: 1 2 3 4 5 6 7 8 9 10 11 12 13 14 15 16 17 18 19 20 21 22 23 24 25 26 27 28 29 30 31 32 33 34 35 36 37 38 39 40 41 42 43 44 45 46 47 48 49 50
000
ASCA44 KEWX 252120
RWRMX

LATIN AMERICA AND CARIBBEAN REGIONAL WEATHER ROUNDUP
NATIONAL WEATHER SERVICE AUSTIN/SAN ANTONIO TX
400 PM CDT MON MAY 25 2015

NOTE: "FAIR" INDICATED FEW OR NO CLOUDS BELOW 12,000 FEET WITH NO
SIGNIFICANT WEATHER AND/OR OBSTRUCTIONS TO VISIBILITY.

BAJA CALIFORNIA

CITY           SKY/WX    TMP DP  RH WIND       PRES   REMARKS
LORETO         SUNNY     79  68  69 NE14      29.87F
LA PAZ         SUNNY     86  34  15 NW9       29.89F
MEXICALI       SUNNY     88  45  22 NE7       29.84F
S.J. DEL CABO  MOSUNNY   88  46  23 SE12      29.89F
TIJUANA        CLOUDY    63  52  67 W7        30.03F

NORTHWESTERN MEXICO

CITY           SKY/WX    TMP DP  RH WIND       PRES   REMARKS
CULIACAN       SUNNY     99  63  30 S8        29.86F HX 100
DURANGO        SUNNY     84  18   8 S12       30.11F
GUAYMAS        SUNNY     84  54  34 S12       29.86F
HERMOSILLO     SUNNY     91  37  15 S6        29.92F
CD. JUAREZ     SUNNY     82  39  21 W10       29.92S
LOS MOCHIS     SUNNY     88  45  22 W12       29.89F
OBREGON        SUNNY     90  27  10 S3        29.86F

NORTHEASTERN MEXICO

CITY           SKY/WX    TMP DP  RH WIND       PRES   REMARKS
CHIHUAHUA      SUNNY     84  21  10 CALM      29.98F
MATAMOROS      PTSUNNY   86  79  79 SE23      29.86F HX  99
MONCLOVA         N/A    N/A N/A N/A MISG        N/A
MONTERREY      MOSUNNY   88  70  55 SE8       29.80F HX  92
NUEVO LAREDO   PTSUNNY   93  73  52 CALM      29.78F HX 102
PIEDRAS NEGRAS MOSUNNY   91  73  55 SE7       29.80F HX 100
REYNOSA        MOSUNNY   86  73  66 E12G23    29.80F HX  93
SALTILLO       SUNNY     90  63  40 S9        30.04F HX  90
TORREON        SUNNY     90  34  13 SE3       29.95F
CD. VICTORIA   SUNNY     93  68  43 S13       29.80F HX  97

WESTERN MEXICO

CITY           SKY/WX    TMP DP  RH WIND       PRES   REMARKS
AGUASCALIENTES MOSUNNY   79  32  18 W5        30.16F
COLIMA         MOSUNNY   90  70  51 SW17      29.90F HX  95
DEL BAJIO      MOSUNNY   84  46  26 W7        30.21F
GUADALAJARA    PTSUNNY   88  45  22 W3        30.08F
MANZANILLO     MOSUNNY   86  73  66 W21       29.76F HX  93
MAZATLAN       MOSUNNY   88  59  37 SW12      29.82F
P. VALLARTA    PTSUNNY   88  73  62 SW13      29.82F HX  96
URUAPAN          N/A    N/A N/A N/A MISG        N/A
ZACATECAS      SUNNY     82  27  13 NW12      30.19F

CENTRAL MEXICO

CITY           SKY/WX    TMP DP  RH WIND       PRES   REMARKS
CUERNAVACA     MOSUNNY   88  50  27 SE9       30.01F
MEXICO CITY    MOSUNNY   77  43  29 NW8       30.22F
MORELIA        PTSUNNY   79  52  38 W6        30.16F
POZA RICA      MOSUNNY   97  75  49 E14       29.83F HX 109
PUEBLA         PTSUNNY   79  48  34 S13       30.22F
QUERETARO      PTSUNNY   81  54  39 W6        30.20F
S. LUIS POTOSI MOSUNNY   82  39  21 SW9       30.14F
TAMPICO        PTSUNNY   86  75  70 SE17      29.81F HX  95
TOLUCA         PTSUNNY   73  48  40 N13       30.30F

SOUTHERN MEXICO

CITY           SKY/WX    TMP DP  RH WIND       PRES   REMARKS
ACAPULCO       SUNNY     91  77  62 SW6       29.80S HX 105
B. DE HUATULCO PTSUNNY   88  79  74 SW14      29.86F HX 102
OAXACA         PTSUNNY   75  57  53 SE15      30.11F
P. ESCONDIDO   SUNNY     86  77  74 SW14      29.92F HX  97
VERACRUZ       MOSUNNY   90  64  43 E10       29.81F HX  91
ZIHUATANEJO    MOSUNNY   91  75  59 SW12      29.81F HX 102

YUCATAN PENINSULA

CITY           SKY/WX    TMP DP  RH WIND       PRES   REMARKS
CAMPECHE       MOSUNNY   99  63  30 E12G23    29.82F HX 100
CANCUN         MOSUNNY   88  75  66 SE14      29.99F HX  97
CHETUMAL       MOSUNNY   86  73  66 SE21      29.95S HX  93
CD. DEL CARMEN MOSUNNY   97  68  38 E13       29.82F HX 101
COZUMEL        MOSUNNY   86  73  66 SE6G18    29.99F HX  93
MERIDA         MOSUNNY  102  61  25 E23       29.87F HX 103
MINATITLAN     MOSUNNY   90  79  70 N12       29.76F HX 105
TAPACHULA      PTSUNNY   91  75  59 SW6       29.82F HX 102
TUX. GUTIERREZ MOSUNNY   91  64  40 N5        29.85F HX  93
VILLAHERMOSA   MOSUNNY   93  70  46 NE9       29.83F HX  99

CENTRAL AMERICA

CITY           SKY/WX    TMP DP  RH WIND       PRES   REMARKS
BELIZE CITY    MOSUNNY   86  77  74 E12       29.92F HX  97
MANAGUA        PTCLDY    90  70  51 E7        29.77F HX  95

CARIBBEAN

CITY           SKY/WX    TMP DP  RH WIND       PRES   REMARKS
ARUBA          MOSUNNY   86  75  70 E21       29.86F HX  95
CURACAO        MOSUNNY   84  72  65 E13       29.92S
KINGSTON       PTSUNNY   86  73  66 SE25      29.94R HX  93
NASSAU         MOSUNNY   88  73  62 E12       30.14  HX  96
SAN JUAN       MOSUNNY   84  73  70 NE15      30.03R HX  91
SANTO DOMINGO  MOSUNNY   84  72  65 W6        30.00S
ST. CROIX      MOSUNNY   82  72  69 E12       30.02
ST. KITTS      MOSUNNY   84  70  61 NE13      30.00S
ST. MAARTEN    MOSUNNY   84  68  58 E9        30.00S
ST. THOMAS     CLOUDY    86  72  62 NE12      30.01  HX  92

$$



USA.gov is the U.S. government's official web portal to all federal, state and local government web resources and services.